Location: Unspecified
(0.0000°N, 0.0000°E)
Time: 11:20:42
(UTC+00:00)

deb Explorer IX - Pass Details

Date: 26 November 2019
Orbit: 546 x 1104 km, 38.8° (Epoch: 14 December)

Event Time Altitude Azimuth Distance (km) Brightness Sun altitude
Rises 19:31:06 0° 254° (WSW) 3,665 ? -24.1°
Reaches altitude 10° 19:34:04 10° 266° (W) 2,791 ? -24.8°
Maximum altitude 19:39:46 28° 322° (NW) 1,899 ? -26.1°
Enters shadow 19:42:44 21° 357° (N) 2,218 ? -26.8°
Drops below altitude 10° 19:45:46 10° 17° (NNE) 2,945 - -27.5°
Sets 19:49:01 0° 29° (NNE) 3,902 - -28.2°
